Location: Observatoire de Paris
(48.8363°N, 2.3365°E)
Time: 02:39:53
(UTC+01:00)

Vanguard 3 - Pass Details

Date: 03 August 2021
Orbit: 510 x 3260 km, 33.3° (Epoch: 18 September)

Event Time Altitude Azimuth Distance (km) Brightness Sun altitude
Rises 20:54:34 0° 259° (W) 6,071 12.4 -4.9°
Reaches altitude 10° 20:58:21 10° 254° (WSW) 5,361 11.9 -5.4°
Maximum altitude 21:14:16 47° 188° (S) 3,889 10.4 -7.5°
Enters shadow 21:32:04 10° 124° (SE) 5,946 10.9 -9.8°
